Theta_e
325 317 316 317 316 315 312 301 293 291 288 284 282 283 288 291 292 291 292 293 291 293 293 297 297 296 296 294 295 296 295 292 293 288 289 299 307 309 308 310 308 309 310 312 315 320 324 333 337 338 340 340 341 342 343 344 344 345 345 345 347 347 348 348 348 347 348 348 348 348 347 347 349 351 352 351 350 351 352 351 352 352 352 351 351 351 350 350 350 349 348 347 346 348 347 345 345
320 316 316 318 315 313 308 294 286 284 283 282 286 284 288 288 292 290 291 291 292 295 296 299 299 300 300 299 298 297 297 297 298 298 302 306 306 305 307 308 306 305 307 309 312 317 322 328 335 336 338 338 339 339 340 340 340 341 343 343 344 345 346 346 347 347 347 347 347 348 348 348 347 346 347 349 350 349 352 353 352 352 351 348 349 350 350 350 350 349 348 348 347 348 349 348 348
317 317 317 315 313 306 301 295 292 279 279 283 282 284 289 291 289 290 290 292 296 296 294 294 295 294 294 294 295 293 292 300 300 301 301 304 300 302 307 307 306 304 305 306 309 314 320 326 331 333 335 335 335 335 335 335 336 337 339 340 341 342 343 344 345 345 346 346 346 346 346 347 348 348 348 347 347 347 345 346 349 348 347 347 349 349 350 349 348 348 348 347 347 348 349 349 349
314 316 312 311 308 298 294 286 284 282 285 280 284 287 287 289 290 291 291 294 296 293 293 295 294 295 293 292 293 295 294 296 299 300 298 300 302 305 305 305 306 302 303 304 305 311 318 325 327 329 331 332 331 331 331 331 332 333 334 335 335 337 338 340 341 342 344 344 345 345 345 346 346 346 347 347 346 345 346 347 347 347 349 349 349 350 350 349 349 348 348 348 348 347 348 349 349
314 316 311 305 298 297 291 285 282 281 283 281 284 286 289 288 291 289 291 291 290 290 292 292 291 294 296 294 294 293 294 297 299 302 300 301 304 303 303 304 301 300 300 301 303 308 315 324 324 325 328 329 329 328 328 328 329 329 330 331 332 333 334 335 336 338 340 342 343 343 343 343 344 344 345 345 345 345 345 344 344 344 343 346 347 348 348 349 348 348 348 348 348 348 348 348 349
309 308 308 306 300 299 291 288 286 284 285 284 285 288 289 288 290 289 291 292 294 292 292 290 292 292 292 294 295 292 297 295 298 299 299 300 302 303 302 304 298 299 299 300 301 305 313 321 323 323 324 325 327 326 326 326 327 327 327 328 329 330 331 332 334 336 337 336 337 338 339 340 342 343 343 343 343 344 345 344 344 343 344 346 345 346 349 349 349 349 347 347 347 347 348 348 349
310 305 300 303 296 295 287 282 282 282 290 286 291 288 289 288 291 291 291 292 294 293 293 293 294 293 291 293 294 296 297 299 298 299 301 301 301 301 301 298 298 297 298 298 300 302 312 319 321 321 321 322 324 324 324 325 326 326 326 327 327 328 328 329 331 332 331 331 333 335 337 338 340 341 341 341 342 343 343 343 343 343 343 344 344 345 346 347 347 348 347 346 347 346 347 347 348
310 305 300 294 289 288 284 282 285 283 289 287 290 288 290 289 288 290 289 290 291 291 293 293 292 290 290 293 290 295 297 296 300 300 298 298 299 300 300 297 296 296 297 297 299 301 311 317 317 317 318 320 321 322 323 324 324 324 324 325 325 326 327 328 328 327 327 329 331 333 334 334 336 338 339 340 340 341 341 341 341 341 342 342 343 343 344 345 346 347 345 345 345 345 346 347 348
302 301 297 292 289 284 282 283 287 286 286 289 288 291 300 288 289 288 290 289 291 291 292 293 291 289 290 290 289 293 294 297 296 299 298 297 297 298 300 297 295 296 296 297 298 299 302 313 315 315 315 317 319 320 321 322 322 322 323 323 323 324 325 325 325 324 324 326 328 328 327 328 329 331 334 337 337 338 338 339 340 340 341 341 342 342 342 344 344 344 345 345 344 344 346 347 346
300 299 296 288 286 286 282 284 286 289 289 290 289 292 289 288 289 289 290 291 292 292 292 291 290 288 290 289 289 292 293 296 296 295 296 296 296 297 298 297 296 295 295 296 296 298 301 308 312 312 313 314 316 317 318 319 319 320 321 321 321 321 321 321 321 321 322 324 324 323 322 322 324 327 328 329 332 332 334 335 335 337 338 340 340 340 341 342 344 344 343 344 344 344 345 346 347
296 294 292 287 282 283 283 284 282 285 289 287 288 289 289 289 289 288 290 290 290 291 291 291 290 289 290 288 288 292 293 293 293 292 295 295 295 295 294 296 296 296 294 295 296 297 297 300 307 310 310 310 312 314 315 316 317 317 318 318 318 318 318 319 319 319 319 321 322 320 319 319 320 321 322 322 323 323 326 324 325 330 334 337 339 340 340 341 342 342 343 343 343 342 344 345 346
295 292 288 283 282 283 281 285 286 287 286 287 292 291 290 289 290 290 289 292 289 289 290 292 290 290 288 287 288 291 292 292 293 293 293 294 291 293 293 293 295 295 295 294 295 295 296 297 298 305 308 308 308 310 311 312 313 314 314 315 316 316 316 316 316 316 316 318 319 317 316 316 317 318 318 319 319 320 320 319 321 324 325 331 336 337 338 339 340 341 341 340 340 341 342 343 345
292 288 286 285 285 285 283 284 286 290 284 288 290 293 289 291 290 292 289 289 288 289 289 290 292 289 286 286 288 290 289 292 292 292 294 291 292 291 292 292 294 294 295 297 294 294 295 296 296 298 302 304 304 305 308 309 309 310 311 312 312 312 313 313 313 312 313 314 315 314 313 312 312 314 315 315 316 316 316 317 319 320 323 327 329 330 332 334 336 338 339 339 339 340 341 342 344
292 290 286 286 284 282 284 284 284 286 286 288 289 290 289 290 289 289 290 290 288 289 291 291 293 289 287 286 289 288 289 291 291 291 291 292 291 291 292 291 292 292 294 294 293 293 293 295 296 295 295 296 296 299 302 307 307 308 308 309 309 309 310 310 310 309 310 310 311 310 309 309 309 310 311 312 313 313 312 313 315 318 321 324 325 325 326 325 327 330 334 337 339 339 339 340 341
297 291 286 284 284 283 282 285 287 283 287 287 291 290 288 290 288 288 289 289 289 289 289 292 293 292 289 287 286 290 290 291 291 292 291 291 290 290 291 291 291 292 292 292 293 292 292 293 294 294 295 294 295 294 294 298 305 305 306 306 307 307 307 308 307 307 307 308 309 308 307 306 306 306 307 308 309 309 309 309 312 315 318 320 320 320 321 323 326 327 328 330 334 337 338 338 339
295 291 286 286 286 283 285 286 283 285 287 288 290 288 289 290 288 290 289 290 289 289 289 292 291 290 289 291 290 291 290 290 291 289 288 289 289 290 289 289 289 290 292 292 292 292 291 292 293 293 294 293 294 294 294 294 302 302 303 304 305 305 305 306 306 305 304 304 305 306 304 302 301 300 304 303 306 307 306 306 309 311 315 316 316 316 318 320 323 324 325 325 327 329 332 332 332
294 291 287 282 287 284 286 286 285 286 286 287 290 289 291 289 289 287 288 287 289 288 285 285 287 288 287 287 289 290 289 296 294 288 289 288 286 287 288 288 290 289 292 290 291 291 291 291 291 293 293 292 293 294 294 294 298 299 297 300 301 302 303 303 303 302 301 300 302 303 301 297 296 297 297 299 303 301 304 305 307 309 311 312 312 313 315 318 320 321 321 322 321 323 324 328 329
292 287 283 286 284 284 286 288 287 288 288 289 289 287 288 288 288 289 288 288 284 285 285 285 286 287 287 288 287 288 288 289 288 287 287 286 286 286 286 287 286 287 288 290 290 290 290 290 290 292 292 292 292 294 294 295 294 296 292 293 296 297 299 299 296 296 299 294 300 298 296 297 296 295 297 302 298 300 299 304 305 307 308 308 309 310 311 314 317 318 318 318 317 316 316 319 324
288 284 284 287 284 289 289 288 289 289 291 289 289 287 289 289 288 288 288 286 285 287 286 284 285 287 287 287 287 287 287 287 286 286 285 286 285 286 286 286 286 286 287 287 289 289 289 289 289 290 291 291 291 292 293 294 292 291 291 292 294 296 296 296 292 294 292 293 295 296 297 295 295 295 297 301 301 301 300 303 304 304 305 305 306 306 308 311 314 314 315 314 313 311 309 313 316
290 287 285 284 288 287 288 286 290 289 289 289 288 288 288 289 288 289 289 284 284 287 286 284 283 285 286 285 286 285 285 285 285 285 285 284 284 284 284 285 286 286 286 287 288 290 289 289 289 290 291 291 290 291 292 291 291 291 291 291 291 291 292 293 291 292 292 292 293 295 295 295 294 294 300 300 299 295 296 300 301 301 302 302 304 301 304 307 310 311 311 310 308 307 306 308 310
293 286 285 291 288 289 293 286 288 287 289 288 287 287 288 288 288 289 286 286 284 286 288 290 287 286 286 285 285 284 284 284 284 285 284 284 285 285 283 285 285 286 285 289 288 288 288 288 288 288 290 290 290 290 291 291 292 290 290 291 291 290 291 290 290 291 291 292 292 294 294 294 294 293 294 294 294 294 294 295 295 295 295 295 301 295 298 301 304 303 303 304 302 303 303 304 306
291 290 288 289 288 291 291 289 288 287 286 286 286 289 289 288 289 287 287 289 289 289 291 289 289 288 287 285 285 283 283 284 283 284 284 284 284 284 284 284 284 284 287 285 285 286 287 288 287 287 289 289 289 289 290 293 291 290 290 291 291 290 291 290 290 290 291 291 292 293 294 292 292 293 293 293 294 294 293 294 294 294 294 294 296 295 297 300 301 301 301 301 301 301 301 302 304
292 288 287 287 288 290 290 288 288 287 288 286 286 288 288 289 288 286 287 291 290 287 287 289 287 288 288 286 284 283 283 283 283 284 284 284 284 284 284 283 283 285 284 285 285 285 289 287 287 287 288 289 289 289 289 289 289 289 289 292 291 289 291 290 289 289 290 290 291 292 292 290 291 291 292 292 292 293 293 293 293 293 293 293 294 295 296 299 300 300 300 299 300 300 300 301 303
290 292 288 291 287 289 290 291 287 286 289 288 286 288 289 287 288 286 287 291 288 284 285 287 287 286 285 284 284 284 283 283 283 284 283 284 284 284 284 285 284 283 284 284 285 285 287 286 287 286 288 289 288 289 289 289 288 289 290 292 289 293 291 289 289 289 290 289 291 290 293 290 290 290 291 291 291 292 292 293 292 292 292 292 294 295 296 297 298 299 299 298 299 299 299 301 302
289 290 288 290 288 288 288 286 287 285 285 287 287 289 289 287 288 284 287 291 286 285 285 285 285 284 283 284 283 283 283 282 283 283 284 283 283 286 283 284 284 284 284 284 285 285 285 289 287 285 286 287 288 288 288 288 288 288 288 288 287 294 289 288 289 289 289 289 289 290 291 289 289 290 290 291 291 291 292 292 291 291 292 292 293 294 295 296 297 297 298 298 298 298 299 300 301
290 291 289 287 289 289 286 289 286 286 287 285 288 287 286 284 286 286 290 287 284 285 284 284 284 284 283 284 283 283 283 283 283 282 284 283 283 282 283 283 284 282 284 284 284 285 285 287 285 286 286 288 288 287 287 288 288 287 288 288 287 291 287 288 289 288 288 287 288 289 289 290 289 289 289 290 290 290 291 291 291 291 291 292 292 293 295 296 296 297 297 298 298 298 299 299 300
289 290 289 290 289 287 287 289 289 286 286 285 288 287 286 286 287 287 283 284 284 284 283 282 283 284 283 283 283 283 283 283 283 283 283 282 282 282 283 282 283 283 286 283 284 284 289 285 285 286 286 290 287 286 287 288 288 286 288 287 287 287 287 289 288 287 288 287 288 288 289 289 291 289 289 290 290 290 290 290 290 291 291 291 292 293 294 295 296 296 297 297 297 298 298 299 299
288 289 287 287 284 285 286 286 285 286 290 284 287 286 285 285 285 288 286 283 284 283 282 282 282 283 283 283 282 283 283 284 283 282 283 281 282 282 281 282 282 282 282 283 284 285 285 284 285 286 285 287 287 286 288 287 287 286 288 286 286 287 288 287 286 287 288 287 288 287 288 288 291 289 289 289 290 289 289 289 290 290 290 291 292 292 293 294 295 296 297 297 298 298 298 298 299
288 288 289 285 285 287 287 288 287 286 290 285 286 287 285 284 286 287 284 283 283 283 282 281 281 282 282 282 282 282 282 282 281 282 282 282 282 282 282 282 283 283 283 283 283 285 284 284 286 285 286 285 285 285 285 286 286 286 286 286 286 288 286 286 286 286 286 287 287 287 287 288 289 288 288 289 290 288 288 288 288 288 289 290 290 291 292 294 294 295 295 296 296 297 297 297 298
288 285 287 288 284 286 289 286 286 287 289 284 287 285 286 286 291 283 284 283 282 281 281 281 281 281 281 280 282 282 281 281 281 282 281 280 281 282 281 281 283 282 282 282 283 283 286 286 287 287 288 284 287 285 288 285 285 285 288 285 287 286 285 285 286 286 286 287 286 286 287 287 288 288 288 288 288 287 287 287 286 287 287 288 289 289 289 291 293 294 294 295 296 296 295 296 296
287 286 282 279 283 283 287 286 286 288 287 287 289 284 288 287 287 285 283 283 283 283 283 282 281 281 280 281 281 282 282 281 282 281 281 281 280 281 281 280 282 281 285 281 282 282 283 283 288 284 288 284 284 283 285 285 286 285 284 284 285 285 286 285 285 285 285 285 286 285 286 287 288 287 287 287 286 286 285 285 286 286 287 287 287 288 288 289 291 292 293 294 294 294 295 296 296
281 285 282 278 284 283 284 286 285 288 288 285 288 284 287 290 290 284 283 283 283 284 283 282 281 281 281 281 281 281 282 281 281 281 281 281 280 281 280 281 280 281 281 281 283 283 282 282 286 283 284 283 283 285 285 284 284 284 284 287 286 285 285 284 284 284 285 284 285 285 285 286 287 286 286 286 285 285 285 284 285 286 286 286 286 287 288 288 289 291 292 293 293 294 295 295 296
278 284 280 281 280 281 283 285 282 286 287 288 287 286 286 288 284 282 282 283 282 283 283 282 281 281 281 281 281 281 281 281 280 280 280 280 279 280 280 280 280 281 280 280 281 281 281 281 285 283 283 283 283 282 283 283 284 283 283 284 284 284 284 283 284 284 284 284 284 284 284 286 286 285 285 285 284 284 284 284 284 284 285 285 285 286 286 288 287 288 290 293 294 293 294 294 295
278 278 283 278 282 281 281 283 284 283 286 286 286 284 287 290 286 281 282 282 281 282 283 282 282 282 282 281 281 281 281 281 280 280 280 280 280 279 279 284 281 281 281 282 280 281 281 281 281 284 284 284 283 283 284 283 283 283 283 283 286 284 283 283 283 284 283 283 283 284 284 285 286 284 284 284 283 284 283 283 283 283 284 284 284 284 285 286 286 287 288 290 293 294 294 294 294
281 281 280 281 277 279 282 282 283 285 285 285 284 284 286 289 291 285 282 282 282 282 284 284 283 282 281 281 281 281 281 280 281 281 281 280 280 280 279 281 280 280 280 279 279 279 280 280 283 283 285 282 282 282 283 284 283 282 282 282 282 282 282 282 283 283 283 283 283 284 284 284 285 284 284 284 283 283 282 282 282 282 283 283 283 283 283 285 285 286 285 286 289 292 294 295 295
284 281 279 278 279 281 279 282 281 282 282 283 282 284 287 289 290 289 282 282 281 283 283 283 282 281 281 281 281 281 281 281 281 281 281 280 280 280 279 279 279 279 278 278 281 279 279 279 280 280 282 281 281 282 282 281 281 282 281 281 281 282 281 283 283 282 283 282 284 284 283 283 283 284 283 282 282 282 281 281 281 282 282 282 282 282 282 283 284 284 285 286 286 289 292 294 295
280 278 279 279 278 280 281 281 281 282 282 282 284 283 284 286 288 290 287 282 281 282 282 282 282 282 281 281 281 282 282 282 282 281 280 280 280 280 279 278 279 278 278 278 279 279 279 280 282 280 280 281 282 281 281 281 280 280 280 280 280 280 281 283 282 282 282 282 283 283 283 283 282 282 283 282 281 282 281 281 281 281 281 282 282 282 283 283 284 285 286 286 286 287 290 293 294
281 280 278 280 278 280 284 283 282 280 283 280 279 280 282 285 288 290 287 281 282 282 282 282 283 282 282 282 281 282 282 281 281 280 279 278 279 278 278 278 280 279 279 278 279 280 279 279 279 280 280 280 280 280 282 282 280 280 280 280 279 280 280 280 280 281 282 284 282 282 282 282 282 281 282 281 281 280 280 280 280 280 281 281 282 283 284 285 285 285 285 285 286 287 288 293 295
279 281 278 278 281 279 282 281 280 281 281 282 282 281 285 286 288 290 290 285 287 285 285 286 284 283 282 282 282 282 281 280 280 280 279 279 279 278 278 278 279 281 280 280 279 278 278 278 279 280 280 280 280 281 282 280 280 281 280 280 280 279 280 281 281 282 282 282 281 281 282 281 281 281 281 282 281 281 280 280 280 280 281 282 282 282 283 282 283 283 284 284 284 287 288 291 292
279 278 279 280 280 281 281 281 279 280 282 282 282 282 283 286 287 288 290 288 288 287 286 286 286 285 284 283 283 282 281 280 280 280 279 278 279 278 277 277 278 277 279 278 278 278 279 281 279 279 279 280 280 280 285 281 281 282 281 280 280 280 279 283 282 281 280 280 280 281 280 281 281 281 281 280 281 280 280 280 280 280 281 282 281 280 280 280 281 282 283 284 286 285 287 288 291
279 280 279 280 281 281 281 280 279 280 279 279 280 284 285 284 284 285 282 279 282 285 284 283 283 284 284 283 283 283 282 281 281 280 279 278 278 277 277 279 278 278 278 279 278 278 280 279 279 279 279 279 279 283 282 281 282 279 279 280 280 280 280 279 278 278 279 280 281 279 279 280 280 280 280 280 281 280 280 280 280 280 280 280 280 280 280 280 281 282 283 284 286 287 286 288 290
276 278 283 283 282 281 279 279 280 279 278 278 280 281 277 276 279 282 284 282 283 282 282 284 283 283 282 282 283 282 283 282 282 280 279 279 278 278 277 277 277 278 278 279 279 279 278 279 278 278 278 278 279 279 280 281 280 278 277 277 277 277 276 277 277 277 278 278 278 279 279 279 279 279 279 279 279 280 280 280 280 280 279 280 280 280 280 280 280 280 282 283 284 285 285 286 286
280 283 280 282 281 280 279 279 280 277 275 280 279 278 279 279 282 282 286 282 285 283 280 284 283 283 282 283 283 282 281 281 281 280 279 278 278 277 277 277 278 278 279 278 277 277 277 277 277 278 277 278 279 279 279 282 277 278 277 277 277 276 275 276 277 278 277 278 278 278 278 279 279 279 279 279 279 279 280 280 279 279 279 279 280 279 278 279 279 280 282 282 282 284 285 285 285
279 280 278 280 280 280 279 279 280 279 278 278 279 281 278 279 281 287 285 283 285 286 286 285 284 282 282 283 283 282 281 281 281 280 279 279 278 278 278 278 277 279 279 277 277 277 277 277 277 277 277 280 279 278 278 279 278 277 277 276 278 277 276 276 277 277 278 279 278 278 278 278 278 278 279 279 279 279 280 279 279 279 279 278 279 278 278 279 280 280 281 281 281 281 282 283 286
279 280 278 278 281 279 277 279 277 275 276 277 276 279 276 274 275 277 278 281 283 284 286 286 286 284 283 283 282 282 281 281 281 280 279 278 278 278 279 278 278 278 277 278 278 278 277 276 277 277 277 277 277 277 279 277 279 278 276 276 275 277 277 278 278 279 277 277 276 277 277 277 277 278 278 278 278 279 280 279 279 278 278 278 279 279 278 279 279 279 279 279 279 281 283 286 286
282 280 279 279 278 278 278 276 278 273 273 278 275 278 273 280 278 279 276 278 280 282 285 287 287 285 283 282 282 281 281 281 280 280 279 279 278 278 278 279 277 277 277 278 277 276 276 275 277 277 275 276 276 276 276 276 276 278 276 275 275 275 276 276 276 275 275 276 275 276 276 276 277 277 277 278 278 278 278 278 278 278 278 278 279 278 278 278 278 279 279 280 280 281 282 282 283
280 280 281 279 277 275 274 273 274 272 273 279 281 277 279 276 278 278 280 281 282 284 283 283 283 283 282 282 281 281 280 280 279 279 279 279 278 278 277 277 278 277 276 275 276 275 275 275 275 275 275 275 276 276 275 275 276 276 275 275 275 275 275 275 275 275 275 275 275 275 275 276 276 276 277 277 277 277 277 278 278 277 278 279 278 277 277 277 278 279 280 280 280 279 279 279 281
280 279 278 280 283 274 270 265 269 271 272 273 274 277 279 274 276 279 282 280 279 284 285 286 286 286 284 281 280 280 280 280 279 278 278 278 277 277 276 277 277 277 276 275 276 275 275 275 275 275 275 275 275 276 275 275 275 275 275 275 275 275 275 275 274 274 274 274 274 274 275 275 275 276 276 276 276 276 277 277 277 277 277 277 277 277 277 277 278 279 279 280 279 279 278 279 280
281 279 277 276 271 269 272 265 270 268 274 275 272 275 275 276 282 280 282 284 284 282 285 288 288 288 282 279 279 280 279 279 278 278 278 278 278 277 276 277 277 276 277 277 276 275 274 275 274 274 275 275 275 275 275 275 274 275 275 274 274 276 275 274 274 273 274 274 274 274 274 274 275 275 275 275 275 276 276 276 276 276 276 277 277 277 277 277 277 278 278 278 277 277 277 278 280
280 281 274 272 270 268 267 267 263 267 271 272 274 275 274 280 282 287 287 288 287 286 284 284 283 282 280 279 279 279 278 278 278 278 278 278 279 278 278 278 277 277 277 276 275 276 275 275 274 274 275 274 275 274 274 274 274 274 274 274 274 274 273 274 274 273 274 274 274 274 274 274 274 274 274 275 275 276 276 276 276 276 276 277 277 277 277 277 277 277 277 277 277 277 278 280 282
281 279 281 279 271 266 267 266 271 276 275 273 273 273 273 274 280 280 287 290 289 281 276 276 277 278 279 278 278 278 277 277 278 278 278 278 279 279 278 278 277 277 276 275 274 274 274 274 274 274 274 274 274 274 274 274 274 274 274 274 274 274 273 273 273 274 274 273 274 273 273 274 274 274 274 275 276 275 275 276 276 276 276 277 277 277 277 277 277 277 277 277 277 278 279 281 281
278 278 280 276 279 277 275 272 268 269 272 273 269 276 275 280 280 280 277 277 279 277 277 278 277 277 278 277 277 277 277 277 277 277 278 278 278 278 277 277 276 276 275 274 274 274 274 274 274 274 274 274 274 275 274 274 273 273 273 273 273 274 275 274 273 274 273 273 273 273 273 273 274 274 275 275 275 275 275 275 276 276 276 277 277 277 276 276 277 277 277 277 276 278 278 279 279
279 280 278 280 281 282 276 274 272 270 267 275 270 275 280 279 282 282 280 279 280 277 276 276 276 276 276 277 277 276 276 276 277 277 278 278 277 277 277 276 276 275 274 274 275 274 274 274 274 273 273 273 273 274 273 273 273 273 273 272 272 272 272 271 271 272 272 272 273 273 273 273 274 274 275 275 275 275 275 276 276 276 276 276 276 276 276 276 276 276 276 276 276 277 277 276 276
280 275 279 280 281 280 278 274 270 267 267 274 269 276 280 275 280 278 280 281 281 279 278 274 274 274 275 277 277 276 276 276 277 277 277 277 276 276 276 276 276 275 275 274 274 274 274 274 274 273 273 272 273 273 273 273 272 272 272 272 272 272 271 271 271 271 272 272 272 273 273 273 273 274 275 275 275 275 275 276 275 275 276 276 276 276 276 275 275 275 275 275 275 276 275 276 277
279 278 281 281 276 275 275 269 270 267 266 269 274 274 279 279 283 280 281 279 282 282 278 274 276 275 276 277 277 276 275 275 276 276 276 276 276 276 275 275 274 274 275 274 274 274 273 273 273 273 272 273 273 273 272 272 272 272 272 272 271 271 271 271 271 271 271 271 271 272 272 272 273 274 274 274 274 274 274 275 275 275 275 275 275 275 275 275 275 274 275 275 275 276 276 276 277
279 281 280 280 278 274 272 277 271 270 270 268 275 278 278 281 283 280 283 282 281 280 276 277 278 278 277 277 276 275 275 276 276 276 276 276 276 276 275 275 274 273 273 273 273 272 272 272 273 273 273 272 272 271 271 271 271 271 271 271 271 271 271 271 271 271 270 270 271 271 271 272 272 273 273 273 273 273 273 273 274 274 274 275 275 275 275 274 274 274 274 274 274 275 274 275 276
277 278 275 275 276 278 277 275 272 272 268 269 269 274 281 282 284 283 282 282 281 279 280 279 278 278 278 277 277 276 276 276 276 276 276 276 275 275 275 275 274 272 273 273 272 272 272 272 271 272 271 271 271 271 270 270 271 270 270 269 269 270 269 270 270 270 270 270 270 271 271 271 272 271 272 272 272 272 273 273 274 274 274 274 274 274 274 273 273 272 273 273 273 274 273 274 275
282 281 280 280 277 274 271 274 275 270 274 270 270 275 283 284 282 287 283 284 282 281 285 283 279 278 277 277 276 276 276 276 276 276 276 275 275 275 274 273 271 271 272 272 271 271 270 270 271 271 271 270 270 270 270 270 270 270 269 269 269 269 269 269 269 269 269 269 270 270 270 270 270 270 271 271 271 272 272 273 273 273 273 273 273 273 273 273 272 271 271 272 272 272 273 273 274
Wind_Speed
3 0 1 3 4 2 5 4 1 2 7 0 0 1 1 0 0 0 1 0 2 2 3 2 3 3 1 3 10 6 1 4 0 3 3 1 3 1 4 6 8 8 7 7 7 7 9 12 17 17 18 18 18 19 19 20 20 20 20 19 18 17 14 12 11 10 11 11 11 12 14 14 14 13 11 11 14 12 11 9 8 8 8 9 10 11 11 12 12 12 11 11 10 7 7 10 11
1 0 3 3 1 1 2 1 3 6 5 2 0 2 0 2 1 3 2 1 2 3 1 10 11 14 14 13 9 3 5 3 2 2 1 2 4 3 6 8 7 7 7 7 7 7 8 11 17 18 19 19 19 20 20 20 20 21 21 20 20 20 19 18 16 15 14 14 13 13 13 13 11 12 15 17 16 15 13 10 9 7 7 10 13 12 12 12 12 12 12 12 12 9 7 8 9
2 0 1 1 2 4 2 3 2 0 3 1 3 4 1 1 2 1 2 5 8 8 4 6 6 3 1 1 4 3 2 1 1 1 1 2 3 5 8 7 5 5 5 6 7 8 8 11 17 18 19 20 20 20 21 20 20 20 20 20 21 21 21 20 19 19 18 17 17 17 16 15 15 15 13 13 15 14 17 16 10 8 9 11 11 13 12 12 12 12 13 13 13 11 10 8 8
1 3 1 2 0 2 2 4 3 6 1 2 0 2 1 3 4 3 1 6 8 4 1 1 5 1 4 6 1 2 2 1 0 2 0 2 0 4 7 6 7 4 6 7 7 7 7 11 18 19 20 20 21 21 21 21 21 20 20 20 21 21 21 21 21 21 20 21 20 19 19 18 18 17 15 14 13 14 9 11 16 12 12 11 10 12 13 13 13 13 13 13 14 14 10 10 8
4 2 3 2 2 2 6 1 6 2 1 4 2 2 3 3 8 3 1 2 3 4 1 2 4 3 0 3 0 1 3 1 1 1 1 1 2 3 4 4 4 5 8 7 7 7 7 17 18 19 20 21 21 21 21 21 21 21 21 21 21 21 21 21 21 21 22 22 22 22 22 21 20 20 19 17 16 14 13 11 10 15 16 15 15 14 14 14 14 13 13 13 14 14 12 10 9
4 3 2 4 2 1 4 3 2 3 2 4 1 2 4 5 6 4 1 2 0 1 1 1 5 4 2 1 2 0 1 2 2 1 1 1 3 4 4 4 2 7 6 6 6 6 8 17 19 20 20 21 21 21 21 21 21 21 21 21 21 21 21 22 21 21 21 21 21 22 22 22 21 20 20 20 18 17 16 16 14 15 16 14 17 18 16 14 15 15 14 14 14 15 13 10 11
0 2 5 3 3 2 4 2 3 2 1 4 1 1 4 3 6 9 5 3 0 3 2 2 5 6 4 1 1 0 2 2 1 1 1 1 3 3 4 2 2 7 6 6 6 7 10 17 19 19 20 20 20 21 21 21 21 21 21 21 21 21 21 21 21 22 22 22 22 22 22 22 22 22 23 22 21 20 19 18 18 17 17 17 17 18 19 19 17 15 16 16 15 15 13 11 10
1 2 2 3 0 7 5 3 3 2 0 3 1 2 1 4 6 4 3 4 4 2 0 3 2 4 1 3 3 1 1 0 1 1 1 1 2 2 2 2 7 7 6 5 5 6 9 17 18 19 19 20 20 20 21 21 21 21 21 21 21 21 21 21 21 22 22 22 22 23 23 22 22 23 22 22 22 22 21 21 20 19 19 18 18 19 19 17 20 21 18 17 17 15 13 11 9
6 4 1 6 3 2 2 2 1 1 3 1 3 5 2 5 6 5 1 1 2 2 6 3 1 2 3 2 2 2 0 0 0 1 2 1 1 2 2 4 7 6 6 5 5 5 6 14 17 18 19 19 20 20 20 20 21 21 21 21 21 21 21 21 21 21 21 21 21 22 22 22 21 21 22 23 23 22 22 22 22 21 21 19 19 19 19 20 18 19 19 19 18 16 12 10 11
2 2 1 2 2 3 1 0 2 1 1 2 2 2 4 4 3 2 6 3 3 8 4 1 1 3 5 5 2 1 2 0 0 3 0 1 1 1 2 4 4 4 5 6 5 5 5 11 16 17 19 20 20 20 20 20 20 21 21 21 21 21 21 21 21 21 21 21 21 21 21 22 22 21 21 21 22 22 23 23 23 22 21 21 20 20 19 19 20 20 20 19 19 17 13 12 12
1 5 2 6 5 1 2 4 3 2 2 4 4 4 3 3 6 3 1 4 2 5 1 4 3 6 5 2 3 1 1 1 4 5 1 0 0 0 3 3 3 3 5 5 4 4 5 6 13 16 17 19 20 20 20 20 21 20 20 21 21 21 21 21 21 21 20 20 20 21 21 21 20 21 21 21 21 21 21 22 22 22 22 22 21 21 21 21 20 19 19 21 20 19 16 14 12
0 1 2 2 2 4 4 4 1 3 5 2 1 1 1 5 4 4 3 7 4 3 5 4 5 5 4 2 3 2 0 4 4 3 2 1 1 1 3 2 3 3 3 4 3 4 5 5 6 11 15 16 18 19 20 20 20 20 20 20 20 20 20 20 20 21 21 20 20 20 21 21 21 20 21 21 21 21 21 22 21 21 21 22 22 22 21 21 21 20 20 18 19 20 19 17 14
2 2 6 7 2 0 1 4 3 1 2 3 3 0 1 4 3 8 6 3 4 6 4 5 4 3 3 4 2 0 4 6 5 3 3 2 1 2 0 1 3 3 4 4 5 5 5 5 6 6 9 13 13 15 17 18 19 19 19 19 19 19 20 20 20 20 20 20 20 20 20 20 20 20 20 21 21 21 22 22 21 21 21 20 21 22 22 22 22 21 20 19 18 18 19 19 16
5 6 5 1 1 3 5 3 1 2 3 3 1 1 0 1 1 3 7 6 6 5 0 1 6 2 0 2 1 4 7 6 5 4 2 1 0 0 1 2 3 4 3 4 5 4 5 5 5 5 6 6 6 9 12 16 17 18 18 18 18 18 18 19 19 19 19 19 18 18 18 18 19 19 19 20 21 21 22 22 21 21 21 20 21 21 22 22 22 21 21 21 20 19 18 19 18
3 1 6 5 2 1 2 5 9 5 6 4 2 2 2 2 2 1 5 5 7 1 3 1 3 1 6 9 5 12 9 7 6 3 3 1 2 1 3 2 3 3 3 4 4 5 5 4 5 5 6 5 6 6 6 8 14 15 16 17 17 18 18 17 17 17 17 17 17 17 16 15 15 16 17 18 19 20 20 20 21 21 22 22 21 21 22 21 22 21 21 21 21 20 19 18 18
3 5 4 4 2 3 3 1 1 3 6 4 1 6 5 1 1 3 3 1 1 2 2 4 0 1 1 10 3 7 8 7 4 4 3 3 2 3 3 3 3 3 3 4 4 4 4 5 4 5 6 5 5 5 5 5 8 12 12 13 14 15 16 16 15 14 13 13 13 13 13 10 10 8 14 11 16 18 18 17 20 21 21 22 23 23 22 22 21 22 22 22 22 22 21 20 19
2 3 4 3 1 2 3 4 6 4 4 3 1 3 3 3 0 0 1 1 6 1 0 0 2 1 3 2 3 8 6 5 6 4 4 3 3 3 2 4 3 4 3 4 4 5 4 5 5 6 5 5 5 4 4 4 5 9 7 9 11 12 12 13 13 11 10 9 9 8 7 7 7 7 8 8 10 10 15 16 19 20 21 21 22 22 23 23 22 21 21 22 22 22 20 17 14
1 2 4 1 1 1 4 7 8 1 4 4 5 5 4 2 1 1 1 6 3 0 1 3 2 1 1 1 2 3 4 6 4 6 3 3 1 1 3 2 3 4 4 5 4 5 5 5 4 5 5 5 4 5 4 4 4 6 5 4 4 6 7 8 6 5 7 5 7 6 5 6 6 5 6 9 8 9 9 15 17 19 20 20 20 21 21 21 22 22 21 21 21 20 21 11 11
5 2 4 0 3 2 4 4 5 1 1 5 3 2 3 5 8 4 3 2 0 2 3 2 1 1 2 1 2 4 4 4 4 4 6 5 3 4 3 1 3 3 4 5 5 5 4 3 4 5 4 4 4 4 3 3 4 4 4 4 4 5 5 4 4 4 4 5 5 4 5 5 5 4 6 7 7 11 11 15 16 18 19 20 20 20 19 20 21 20 21 21 21 19 12 9 9
1 3 2 2 6 3 4 3 5 3 2 4 4 1 2 2 5 2 3 4 2 8 7 1 4 6 7 4 2 4 4 4 4 5 5 5 4 4 3 3 2 2 1 2 3 3 4 4 3 3 3 3 4 4 4 4 4 4 4 4 4 3 4 3 3 3 3 4 4 4 4 4 4 4 6 9 8 7 8 11 15 15 15 15 19 12 14 15 20 18 18 19 12 8 9 9 9
1 3 1 2 2 1 1 5 5 3 1 3 1 1 1 2 2 4 4 4 7 9 9 14 17 14 13 9 7 5 7 7 5 4 6 4 3 2 3 2 1 0 1 1 2 3 3 3 4 5 3 4 5 6 5 6 6 6 6 5 5 4 4 4 3 3 4 4 4 4 3 3 4 5 4 6 6 7 7 8 9 9 9 9 12 9 9 9 9 9 9 10 8 8 9 9 9
2 0 3 2 1 0 3 4 4 3 4 4 2 3 5 2 0 3 10 9 10 12 15 13 7 14 16 14 11 6 8 9 7 7 6 7 6 5 3 1 1 1 1 4 3 3 3 3 3 4 4 5 5 5 5 5 6 7 7 7 7 7 6 6 6 5 5 4 3 3 3 3 4 4 4 5 6 6 7 7 7 7 8 9 9 9 8 9 9 8 8 8 8 8 7 8 8
1 1 0 3 3 1 1 1 3 6 3 4 4 4 4 6 2 4 9 14 6 2 1 7 6 10 11 8 9 8 8 9 8 8 7 6 4 3 2 1 2 3 3 2 2 2 3 4 6 5 6 6 7 6 6 6 6 5 6 6 7 7 6 6 6 5 5 4 4 4 6 5 5 4 5 5 5 5 5 6 7 6 7 8 8 8 9 8 8 8 8 8 7 8 8 7 8
3 1 1 1 4 4 1 1 3 3 7 6 4 3 4 4 6 2 9 15 6 4 5 6 7 7 7 11 10 11 11 10 9 7 7 7 6 4 3 2 0 0 1 1 2 3 4 5 4 4 5 5 5 5 4 5 4 5 5 6 6 6 6 6 6 6 5 5 4 4 3 4 5 6 6 6 6 4 5 4 4 5 6 6 7 7 8 9 8 7 8 8 8 7 8 8 7
2 1 1 1 2 4 2 3 1 4 5 0 4 5 5 7 4 2 11 15 3 1 2 6 8 9 7 9 11 9 8 6 7 6 3 3 3 2 1 1 2 2 2 0 1 1 2 2 3 3 3 4 3 3 3 3 3 4 4 4 5 5 5 5 6 6 6 6 4 5 4 6 5 4 4 4 4 6 6 6 6 6 6 6 6 6 7 8 8 8 8 8 8 8 7 7 7
0 0 1 1 2 3 3 2 5 5 1 3 3 6 2 2 4 7 16 6 3 1 4 6 8 10 11 11 11 10 10 10 7 7 7 4 3 4 3 4 4 4 3 2 1 0 2 2 2 3 2 3 2 2 3 3 3 4 4 4 5 5 5 6 5 6 6 5 6 5 5 4 5 5 5 4 5 5 5 5 6 7 7 7 7 8 7 7 8 8 8 8 8 8 8 8 7
2 1 2 3 3 1 3 6 2 0 2 2 5 3 2 2 3 11 2 4 4 5 5 4 9 13 11 8 8 7 10 11 11 6 4 3 4 5 5 3 4 4 2 2 1 1 2 1 2 2 2 3 2 3 3 3 3 4 4 4 4 5 5 6 6 6 6 5 5 5 5 5 6 6 6 6 5 6 5 6 6 7 8 8 8 8 8 8 8 8 8 9 8 9 8 7 7
2 2 1 2 6 3 3 1 5 1 3 5 5 3 0 1 2 14 1 3 5 10 7 7 8 9 9 7 7 5 6 7 6 5 9 7 7 6 5 6 4 3 3 2 1 1 0 1 1 3 3 3 4 4 4 4 4 4 4 4 4 5 5 5 5 5 6 5 4 4 3 4 3 4 4 5 6 6 7 7 7 7 7 7 8 9 10 10 9 9 8 8 8 8 9 7 6
1 2 2 3 7 1 0 1 1 2 2 3 5 3 4 3 11 5 2 5 5 6 8 8 8 7 6 6 6 7 8 6 4 5 6 6 5 4 7 4 6 5 2 1 0 0 2 1 3 3 3 4 4 3 4 3 3 3 4 4 4 4 5 5 5 5 6 5 3 3 3 4 3 4 4 5 6 6 6 7 7 7 7 7 8 9 11 10 9 9 10 8 8 8 9 9 7
1 3 0 6 6 2 0 0 1 2 1 3 2 5 8 9 17 1 3 9 4 4 7 8 8 7 6 6 8 7 6 5 6 7 6 5 6 6 6 5 4 4 3 1 1 2 1 1 2 2 3 4 3 3 2 3 3 3 3 3 3 3 3 4 5 5 5 4 3 3 3 4 4 5 5 6 6 7 7 7 8 7 7 8 8 8 9 9 9 9 10 10 9 9 9 9 8
1 1 4 1 3 3 2 1 1 4 2 1 1 4 13 6 8 3 6 9 13 11 11 10 9 8 8 8 8 9 8 6 7 7 5 5 5 5 5 5 4 3 3 2 3 1 2 2 1 2 1 2 2 2 2 3 3 3 3 2 2 2 3 4 5 5 5 4 2 2 3 4 4 4 5 5 5 5 5 6 6 7 8 8 8 8 8 8 9 9 9 9 10 10 10 9 9
3 2 3 3 1 7 8 3 6 4 1 2 1 6 13 16 8 4 7 8 9 12 12 12 11 10 10 9 10 9 8 6 6 6 6 7 6 6 6 7 5 4 4 4 2 1 2 0 0 1 0 1 2 2 3 2 3 3 3 3 2 2 3 4 4 5 5 4 2 3 4 4 3 4 4 3 3 4 5 5 6 6 7 8 8 8 8 9 9 9 9 9 11 11 10 12 8
4 1 4 4 0 5 8 1 1 3 1 1 4 8 8 11 4 2 4 8 9 10 10 11 13 12 11 11 10 8 6 8 6 7 7 7 6 6 6 6 7 6 5 5 5 3 3 1 1 1 0 1 2 3 3 3 3 3 3 3 3 3 3 4 4 5 5 4 3 3 3 4 4 4 4 3 3 4 4 5 6 6 6 7 7 8 8 8 9 10 10 9 9 12 11 12 11
3 2 2 3 2 3 4 4 1 1 2 1 3 3 12 14 6 2 5 9 9 11 13 13 13 11 12 9 9 9 10 9 12 10 10 7 7 7 6 7 6 5 4 5 5 6 5 3 2 2 2 2 2 2 3 3 3 3 3 2 3 3 3 4 4 4 5 5 2 3 3 4 4 4 4 4 4 5 5 5 6 6 7 7 7 7 8 7 8 9 11 10 10 10 11 11 11
2 4 4 7 1 5 8 3 2 3 1 6 1 6 17 19 17 6 9 11 12 16 15 16 14 11 10 11 11 12 11 12 13 9 9 9 8 7 6 5 6 5 4 5 4 3 2 4 2 2 2 2 2 2 3 3 3 4 4 3 3 3 3 3 3 4 5 5 2 2 2 3 4 4 4 4 5 6 7 7 7 7 7 7 7 7 7 7 7 8 10 12 11 11 12 11 11
5 5 6 3 4 7 6 6 3 1 5 6 7 10 14 17 19 11 6 11 15 18 11 9 7 9 10 11 12 12 13 14 7 7 8 8 8 8 6 5 5 5 5 4 4 3 3 2 2 2 3 3 2 3 2 3 3 3 4 4 2 2 3 4 3 4 5 5 3 1 2 3 3 3 3 3 3 5 6 6 7 7 7 8 9 9 8 7 9 9 10 11 13 12 11 11 10
2 2 2 7 7 8 6 4 3 1 1 11 13 10 13 17 19 20 7 8 12 11 11 13 11 11 12 13 14 15 14 14 6 8 8 9 9 8 6 6 6 4 4 4 4 4 5 4 4 4 3 2 2 2 2 1 2 4 2 2 5 5 5 4 5 4 4 5 2 1 2 2 3 3 4 4 5 6 6 6 7 7 7 7 8 8 9 10 9 9 9 9 12 14 11 8 9
2 2 4 9 4 11 7 4 0 5 3 6 4 5 13 17 19 20 7 8 15 15 14 15 15 14 13 15 16 16 13 2 5 7 8 7 7 6 5 6 8 7 5 5 6 7 5 3 4 4 2 3 3 3 2 1 2 1 1 5 4 6 7 6 6 6 6 5 3 3 4 3 4 5 5 4 5 5 7 7 7 7 7 7 8 8 8 9 9 8 8 10 7 11 12 8 8
1 3 3 3 10 5 10 4 1 1 2 10 7 10 16 18 19 21 19 11 13 10 15 19 15 16 14 14 15 12 8 10 9 11 9 9 9 8 7 6 7 9 9 8 6 3 4 4 5 4 3 3 4 3 2 2 2 2 2 4 3 5 5 5 5 6 5 5 5 5 5 5 6 6 6 6 5 5 6 7 7 7 6 7 7 7 6 8 8 10 10 10 11 8 10 9 9
3 1 1 10 2 3 9 1 3 2 2 5 6 15 17 17 16 24 18 7 13 7 12 16 10 14 16 17 15 15 16 14 16 16 15 11 10 8 6 7 8 6 6 5 4 6 4 5 4 4 4 3 3 3 3 3 3 3 3 4 5 5 6 5 5 5 4 3 5 4 3 3 4 6 6 6 6 6 6 7 7 7 7 6 8 9 8 8 8 8 9 12 11 13 9 9 7
3 5 5 5 6 7 7 5 5 5 3 0 8 14 13 9 8 8 3 3 2 7 6 9 8 10 7 5 8 14 17 17 15 13 12 12 11 11 10 9 7 8 7 7 6 6 5 6 5 4 4 4 3 3 3 2 2 2 3 4 5 5 4 5 5 5 5 3 3 3 4 3 5 6 6 6 6 6 6 6 7 8 8 7 7 8 8 8 8 8 10 11 12 10 13 12 10
3 6 12 9 7 7 5 4 5 3 4 1 4 11 4 2 3 9 9 3 5 3 6 13 9 8 7 11 15 10 11 11 15 17 17 15 14 9 8 7 9 8 8 8 6 6 4 4 3 3 3 3 4 3 3 2 2 1 2 4 6 4 7 7 7 9 9 8 8 5 5 4 4 5 5 5 5 5 5 6 7 8 7 7 7 7 8 8 8 9 9 10 13 12 12 13 14
0 7 5 8 4 2 2 4 5 6 3 2 3 2 19 3 4 4 8 4 12 4 6 15 6 8 10 15 13 11 13 12 10 10 12 13 12 11 9 9 9 9 9 6 5 4 3 3 3 3 3 3 2 2 2 3 2 2 2 2 3 3 4 4 4 5 6 6 4 6 6 5 5 6 6 6 6 6 6 7 7 7 7 6 7 7 8 8 8 8 8 8 10 11 12 13 15
5 2 4 6 4 1 3 1 4 8 0 3 1 6 13 16 6 9 5 6 12 14 13 14 12 10 13 15 12 11 13 14 14 15 16 13 13 14 14 11 10 10 8 6 5 4 5 4 4 3 2 2 2 2 2 3 2 2 2 3 3 3 3 6 6 6 5 4 6 7 6 6 6 5 7 6 6 6 7 8 7 7 7 7 7 7 9 9 8 8 8 9 10 11 14 15 15
4 3 6 3 1 2 3 2 2 2 4 10 6 1 3 8 5 3 2 5 10 14 15 15 12 11 14 14 12 13 13 14 15 14 16 17 17 14 11 11 10 8 6 8 7 6 3 2 3 2 2 2 2 2 2 2 3 2 3 3 4 4 5 6 6 5 5 4 6 6 6 6 6 6 6 7 7 7 7 8 7 7 7 8 7 8 8 9 10 10 9 9 11 12 12 13 12
1 5 4 5 5 4 1 1 1 3 3 16 6 9 4 18 5 1 3 1 10 12 14 14 11 9 11 12 11 11 9 10 12 14 14 15 13 11 9 9 9 9 7 6 4 3 2 2 3 3 0 2 2 2 2 2 2 2 3 3 4 5 4 5 5 6 5 4 6 7 6 6 6 6 6 6 7 7 7 7 7 7 8 8 8 8 9 10 11 11 11 11 13 14 12 13 15
4 4 1 2 4 4 2 5 1 3 7 16 7 15 10 10 3 8 8 9 11 10 7 7 7 8 8 9 10 10 11 12 12 13 13 12 9 10 9 11 10 8 5 6 5 4 3 2 2 1 1 2 2 2 2 3 2 2 3 3 3 5 6 6 7 7 6 6 8 8 7 7 7 7 7 7 7 7 7 7 8 8 8 8 9 9 9 10 11 12 13 14 15 13 12 15 19
4 2 2 3 8 4 2 4 3 1 11 5 2 10 9 10 5 6 8 4 4 10 8 9 9 11 10 7 7 9 11 12 11 11 12 13 11 10 8 10 10 9 6 6 4 4 4 3 2 1 1 2 2 2 2 3 2 3 2 3 4 4 5 6 7 8 7 8 8 9 8 8 8 8 7 7 7 6 7 8 8 9 9 8 9 9 9 10 11 12 13 12 14 16 16 16 17
3 4 4 1 6 6 6 2 1 6 12 2 3 5 4 16 16 4 8 12 10 10 10 9 10 10 5 4 6 8 9 9 12 14 13 14 17 16 14 11 10 9 9 8 6 5 4 3 1 0 2 2 2 2 2 3 2 2 2 3 3 4 5 6 6 7 7 7 8 9 9 9 9 9 8 8 8 7 8 8 8 8 9 8 9 10 10 11 13 13 14 16 16 16 15 17 16
6 7 6 3 0 1 5 6 2 8 6 3 4 1 9 6 9 17 21 17 13 13 12 8 6 6 5 4 6 8 9 12 13 14 15 17 18 16 14 13 11 9 8 7 5 5 4 3 2 2 3 2 2 2 2 2 3 2 2 3 3 4 5 5 6 7 8 7 7 9 9 9 10 10 10 10 8 9 8 9 10 10 10 11 11 11 12 12 13 13 15 15 16 14 15 17 12
10 3 9 9 8 6 5 3 6 12 9 1 3 1 10 0 5 2 15 16 13 3 2 4 4 4 4 4 4 5 7 9 10 12 15 18 18 16 14 12 9 8 7 6 5 4 4 3 3 2 2 2 1 2 2 2 3 3 2 2 3 3 5 5 6 6 7 9 8 9 10 9 10 10 10 10 10 9 11 10 10 11 11 11 12 12 12 13 14 14 14 14 14 13 15 14 14
1 3 5 5 10 6 6 5 4 4 8 8 3 9 4 6 3 3 1 4 6 2 3 3 4 2 1 2 7 9 9 9 10 12 13 14 13 11 10 9 7 7 6 5 5 5 4 4 3 3 3 2 2 2 2 2 3 2 2 3 4 4 5 5 6 6 7 8 10 9 10 10 10 10 10 10 11 10 11 11 11 12 12 11 12 13 14 12 12 13 14 14 15 12 14 15 14
4 7 7 7 1 5 1 4 1 1 2 18 3 10 8 4 6 10 2 4 8 1 2 1 2 1 3 7 8 9 9 10 12 14 14 13 9 9 8 8 7 6 6 6 6 6 6 4 3 2 2 2 2 2 2 2 3 3 3 3 4 4 5 6 7 9 9 9 9 9 9 10 11 10 11 10 11 11 11 11 12 12 12 13 12 13 13 14 14 13 14 15 15 13 15 16 16
8 3 7 2 2 3 4 4 3 1 4 12 1 12 13 5 13 4 1 6 9 5 7 2 3 3 6 9 10 10 12 11 10 8 7 8 8 8 7 6 8 8 7 6 6 5 4 4 4 2 1 2 2 2 2 2 2 2 3 3 3 4 5 6 7 9 9 9 9 9 9 10 10 10 11 11 11 13 12 14 13 14 15 14 12 13 14 15 15 14 15 16 16 16 16 15 16
4 3 2 7 3 1 1 4 5 3 4 9 12 2 15 10 13 3 6 6 9 8 4 4 6 7 12 10 9 7 7 7 11 13 12 11 12 11 10 9 7 6 6 6 6 6 4 3 3 3 2 3 3 2 2 1 1 2 2 3 4 5 5 6 7 8 8 9 10 10 10 10 11 11 11 12 12 13 13 14 13 14 13 15 16 15 15 15 15 14 13 14 14 15 15 16 15
1 0 1 1 2 3 5 7 2 4 6 2 19 10 22 4 9 9 8 12 10 6 3 10 13 12 11 11 10 11 12 13 13 13 13 13 12 12 11 11 10 9 7 6 6 5 5 5 3 2 2 3 2 2 2 3 2 2 4 3 3 4 6 7 8 8 9 10 10 10 11 11 11 11 11 13 13 14 14 14 13 14 16 13 16 16 14 15 13 14 13 14 14 16 17 18 17
2 2 2 1 1 2 4 1 5 6 3 6 6 12 20 5 8 8 8 11 12 11 10 10 10 12 13 12 12 12 13 13 14 14 13 13 12 11 10 9 8 5 5 6 6 7 5 4 3 2 3 3 2 2 2 2 2 2 3 4 5 5 7 7 8 8 10 10 10 11 10 10 11 12 12 14 13 14 15 15 16 16 15 16 15 16 14 13 13 14 14 15 17 17 19 17 16
16 15 14 16 10 2 2 13 1 2 3 8 4 18 21 3 4 9 6 10 10 11 10 10 10 13 12 12 12 13 13 14 13 13 12 12 11 10 9 7 5 6 7 7 6 5 4 4 3 2 1 2 2 2 2 3 2 3 4 5 6 5 6 7 9 10 10 10 10 10 11 11 13 13 12 14 15 14 14 16 16 17 16 17 16 17 17 14 14 15 15 13 14 18 19 19 17
Wind_Direction
352 12 286 152 73 101 47 5 79 324 59 41 319 25 228 147 222 311 40 3 39 307 288 61 46 39 182 171 129 132 81 104 178 134 211 216 175 276 339 341 336 349 0 349 349 351 6 12 32 38 41 42 42 41 38 35 34 33 33 33 35 33 27 18 13 0 341 333 335 339 328 315 308 297 283 277 280 274 260 254 250 252 250 254 261 276 291 297 301 303 305 307 308 300 295 299 300
35 171 45 159 35 95 232 96 107 29 38 68 39 112 223 276 64 204 155 146 180 141 148 88 76 75 85 107 124 111 38 16 184 148 120 241 302 316 357 346 334 348 348 349 358 2 9 12 31 38 41 41 43 42 42 40 37 36 33 31 33 33 32 30 26 22 20 14 6 360 353 340 329 315 315 301 294 288 271 256 260 275 295 306 293 285 288 293 298 301 302 301 303 297 279 271 281
31 169 11 20 15 77 78 43 68 111 69 62 274 217 353 148 90 22 224 153 140 157 177 102 102 75 36 32 40 64 199 317 13 341 128 352 69 323 340 334 324 347 356 354 4 6 11 17 33 40 42 44 43 43 43 42 41 40 36 35 33 32 30 29 29 29 25 22 19 16 13 6 352 345 336 321 309 303 303 301 290 296 285 262 270 285 286 290 293 298 300 301 300 300 302 295 283
84 58 114 110 321 23 52 21 88 124 124 220 212 279 221 159 134 134 53 149 156 143 222 28 58 270 102 62 136 85 60 4 147 231 50 6 70 281 314 319 332 336 18 13 2 8 11 26 38 41 43 45 44 44 43 42 41 40 39 37 35 34 32 30 29 27 29 26 23 22 21 18 14 8 355 341 337 315 306 310 311 286 273 278 286 285 285 287 291 296 297 299 300 300 296 291 297
54 340 68 99 102 33 96 118 133 84 174 194 161 283 244 208 139 155 235 253 266 264 269 167 81 345 85 119 280 146 193 217 6 114 135 256 338 310 308 323 336 18 25 7 6 8 11 35 40 41 43 44 44 43 42 41 40 39 37 36 35 33 33 29 27 25 27 24 23 23 23 19 16 16 12 8 357 349 345 328 307 299 296 302 301 291 289 291 293 293 295 296 297 297 296 296 296
38 48 7 92 71 203 74 64 54 57 224 148 109 237 230 203 138 162 161 101 147 120 165 79 156 172 42 3 145 123 193 109 180 30 117 48 336 317 315 312 322 44 19 13 10 7 15 37 41 42 43 41 42 42 41 40 39 39 37 36 35 34 32 31 29 28 28 25 22 22 21 17 17 19 16 13 10 10 1 351 337 325 322 321 312 311 298 291 291 293 294 294 295 295 296 298 298
157 25 351 21 11 55 139 113 180 156 261 151 152 220 207 195 147 138 148 86 322 37 8 136 119 101 78 282 347 126 207 231 66 157 98 325 352 324 306 292 37 46 23 16 10 10 19 38 41 42 42 42 42 41 40 40 40 39 37 37 35 35 35 34 32 29 27 25 23 23 22 18 16 17 16 12 13 12 11 7 0 351 339 328 323 321 317 307 292 290 294 297 296 296 296 293 291
42 118 327 102 349 44 76 114 153 176 265 179 239 217 253 205 168 138 172 139 199 111 95 120 106 97 245 69 148 213 9 200 125 49 346 359 310 298 310 318 55 37 22 15 15 14 17 38 43 43 42 43 43 43 42 40 39 38 38 37 36 35 35 34 34 31 28 26 25 24 22 21 19 18 15 14 14 12 10 8 5 2 358 353 342 330 321 318 315 304 298 297 297 296 297 300 299
14 83 198 65 54 30 68 351 225 212 286 296 261 207 350 184 164 126 97 231 87 138 164 193 211 90 218 90 157 255 302 298 49 42 52 16 327 309 346 28 58 39 23 21 16 13 17 34 43 42 43 43 44 44 43 42 41 39 37 36 36 36 36 34 33 31 30 29 28 26 24 22 19 19 18 17 16 13 10 8 5 2 358 355 351 345 337 325 311 304 306 304 300 298 297 292 292
16 52 203 110 140 52 40 290 114 210 238 233 240 236 125 200 154 133 151 130 168 143 220 167 197 141 149 147 147 285 199 244 178 93 354 294 284 297 36 43 44 50 37 21 16 15 20 27 39 42 41 42 43 44 43 43 41 40 39 38 36 36 35 34 33 31 30 30 29 28 25 22 21 19 19 18 18 16 13 10 6 3 360 355 350 348 345 340 329 316 308 306 302 301 298 291 286
1 16 144 73 33 112 187 211 265 315 269 317 292 239 199 173 139 112 156 131 141 154 148 135 40 133 128 209 223 243 60 112 126 151 201 267 275 297 67 32 33 41 49 25 14 21 24 26 30 38 38 39 40 42 42 41 41 40 38 37 37 37 36 33 31 31 30 29 29 28 25 22 20 19 19 17 16 15 14 10 5 3 1 358 355 353 350 345 339 333 322 312 307 303 297 286 275
253 22 16 111 160 157 226 164 238 270 308 350 262 15 211 149 114 118 158 135 197 165 187 154 193 144 103 153 251 255 182 149 187 191 233 241 226 24 48 27 37 33 40 33 27 36 34 35 33 30 36 35 36 37 40 40 40 40 39 39 37 36 35 34 33 30 28 27 28 27 24 22 20 19 17 16 15 14 13 9 5 3 0 358 358 357 353 349 345 341 336 327 314 305 299 289 280
101 106 83 78 182 152 188 121 227 287 330 278 181 218 99 139 207 182 171 120 151 145 262 221 133 100 152 191 256 79 173 196 208 215 220 178 121 31 335 33 33 38 25 19 47 39 36 39 37 34 36 37 32 33 34 38 38 39 39 38 38 36 35 34 33 31 30 28 27 25 23 21 19 18 16 15 14 13 11 7 3 2 0 360 359 357 355 353 350 345 339 333 325 315 304 294 283
116 175 123 114 37 151 134 189 358 166 249 236 245 158 73 138 243 162 135 137 199 179 254 218 145 138 107 56 234 219 208 196 204 210 189 189 91 47 16 7 32 27 21 31 43 40 36 33 37 37 36 33 33 29 25 30 35 36 37 37 37 37 36 35 34 31 29 28 28 26 23 19 18 16 15 14 12 13 10 6 2 1 0 1 359 357 354 352 350 349 346 340 333 325 313 301 291
136 136 83 115 91 102 234 134 194 169 233 205 236 144 106 350 115 75 170 142 221 213 298 20 175 127 225 159 246 203 188 195 186 168 128 83 61 44 20 7 15 20 24 33 44 39 33 31 32 35 35 34 32 33 31 18 31 31 32 34 33 34 35 34 34 31 27 26 24 22 21 20 15 12 12 11 10 10 8 5 2 1 360 360 358 355 353 351 349 349 349 347 342 333 328 319 304
134 91 83 103 191 142 223 171 41 123 253 184 237 138 97 359 174 134 225 153 160 352 140 192 27 204 256 184 239 177 170 161 162 112 104 76 29 25 15 8 10 8 25 31 36 36 33 39 26 32 32 31 30 34 29 24 23 30 27 28 28 30 30 28 26 26 25 22 23 20 16 15 13 11 8 6 5 5 3 3 2 2 0 359 356 353 352 351 351 350 350 350 349 344 338 332 324
68 81 51 47 138 166 232 157 147 188 247 256 250 214 144 186 226 32 289 143 137 198 38 213 249 38 202 234 282 145 140 127 110 91 91 80 41 27 4 15 0 30 18 29 34 19 34 39 27 32 28 23 27 29 30 24 19 31 20 19 23 23 22 20 19 17 18 14 19 17 18 18 11 6 2 5 5 0 357 359 0 2 0 358 355 353 350 349 350 350 350 351 350 348 344 335 329
58 64 119 39 176 148 200 176 186 217 145 230 194 212 119 173 178 202 39 41 35 351 44 309 340 20 264 275 30 70 111 120 114 127 124 115 60 70 57 4 11 29 5 2 17 21 25 29 30 33 21 14 20 27 24 20 16 20 18 11 10 14 7 13 4 10 7 10 11 15 18 15 13 6 1 359 1 359 356 358 358 359 358 357 353 352 349 348 348 348 348 349 350 350 349 346 338
88 127 78 205 180 230 142 195 200 152 241 203 204 179 166 220 144 190 137 229 97 196 265 355 323 324 38 44 55 79 99 117 129 140 146 142 147 123 111 23 37 12 16 6 5 13 12 19 24 26 18 4 14 23 23 16 20 14 11 10 4 5 359 1 360 0 5 5 7 12 16 11 9 6 2 358 356 352 353 356 357 358 356 353 350 350 347 345 346 346 346 346 347 348 349 345 339
203 109 60 256 211 250 212 175 205 183 89 158 202 208 180 257 142 141 202 182 178 203 189 271 221 207 196 184 142 118 113 133 143 159 154 145 154 140 129 103 83 35 328 340 331 356 11 17 7 30 11 1 18 11 17 15 14 9 10 3 1 353 349 351 350 354 2 8 9 12 9 7 6 5 359 358 357 358 354 353 354 354 353 350 347 346 342 341 342 341 342 344 345 346 344 340 335
205 77 139 220 203 162 266 169 232 226 161 166 170 81 204 222 195 166 163 108 242 253 230 186 196 188 186 184 178 164 151 151 168 178 152 158 178 201 162 165 127 263 266 262 11 351 347 10 4 16 357 17 18 10 13 7 3 4 1 358 354 357 347 346 347 351 360 7 7 8 7 6 4 4 3 359 1 357 355 354 352 352 347 345 344 343 338 334 336 336 338 340 340 341 338 335 333
104 84 253 179 107 278 258 192 169 142 148 102 143 142 237 107 43 190 165 196 224 209 225 220 214 176 169 176 190 168 164 165 170 171 173 166 166 171 195 227 226 202 274 49 345 319 344 0 33 359 10 11 20 14 3 353 8 5 354 353 351 351 352 347 348 348 356 356 360 2 7 14 10 8 0 359 359 356 354 354 350 345 343 340 340 336 333 330 330 329 330 332 330 330 329 325 323
39 313 202 204 199 184 292 185 213 144 144 146 157 226 103 168 237 201 196 214 225 208 253 214 191 189 175 153 149 168 171 173 175 177 172 166 170 178 182 192 93 37 7 3 296 302 336 12 14 11 15 2 5 2 357 2 4 351 347 344 354 340 343 340 337 336 337 340 358 2 12 8 8 9 1 357 356 354 350 346 343 341 338 333 334 332 327 325 323 323 323 322 321 321 322 321 320
104 179 313 249 189 234 238 254 111 184 146 208 209 104 166 164 249 189 203 236 248 283 255 208 163 144 141 154 175 173 175 171 180 182 182 173 169 175 180 143 199 254 23 322 319 332 350 3 359 6 10 11 352 353 347 359 347 349 345 347 344 327 336 329 321 321 323 340 354 2 14 16 10 1 357 354 351 347 344 331 326 330 330 326 322 323 320 321 320 318 316 316 317 316 314 317 316
82 101 221 224 185 246 283 257 277 194 239 130 120 151 226 192 196 55 237 237 248 2 68 125 135 142 159 166 175 173 169 175 171 186 186 179 151 152 126 151 166 141 135 319 297 323 344 338 353 12 10 10 351 333 345 331 343 347 350 344 333 321 325 314 311 317 329 332 340 354 1 6 8 8 357 346 335 344 338 340 337 332 328 322 322 316 313 314 316 316 314 309 310 311 309 309 311
91 208 194 284 268 279 277 305 232 211 232 146 133 225 297 249 303 255 245 240 172 113 97 130 139 157 177 183 179 173 173 177 178 172 186 176 193 136 148 164 154 144 178 222 260 281 304 333 5 14 9 355 336 350 351 345 355 348 341 334 318 328 321 314 317 319 313 324 336 349 356 4 4 360 349 342 348 337 330 329 336 336 332 327 326 320 316 309 308 310 307 307 305 302 303 301 302
151 202 207 219 269 313 290 211 275 264 230 174 189 234 264 336 55 280 40 187 119 120 140 153 163 178 184 185 185 187 175 185 182 174 132 150 178 157 167 161 163 169 165 214 224 299 312 351 23 12 13 11 9 20 343 344 348 349 329 320 320 323 320 320 319 314 316 326 333 342 358 4 2 1 357 349 348 343 341 342 340 335 334 333 329 319 316 312 305 299 300 299 301 299 293 293 294
168 228 320 296 315 247 305 281 282 98 269 168 193 259 175 284 81 246 193 192 164 148 166 177 192 186 188 191 189 193 199 197 188 159 172 168 180 173 169 165 181 180 171 166 185 275 326 52 35 31 20 15 25 2 354 349 346 330 322 325 327 324 330 325 317 316 316 322 327 350 0 0 7 356 351 348 348 347 348 349 341 341 335 330 330 324 318 313 308 299 291 287 287 289 289 285 279
135 89 3 290 350 53 251 287 263 156 242 140 161 283 253 167 230 253 210 135 160 161 173 191 198 199 198 200 200 202 205 197 188 192 188 185 172 171 165 192 163 167 214 157 215 199 80 29 52 15 22 25 22 357 340 324 317 319 318 322 318 328 327 319 313 312 312 311 326 350 1 357 359 357 355 357 355 353 347 341 342 336 332 330 325 320 315 310 307 307 302 295 290 285 284 284 278
199 19 97 333 0 6 177 99 324 138 264 128 247 304 259 214 236 205 168 146 123 155 196 200 204 201 204 204 208 211 218 198 200 203 186 181 171 176 164 192 181 153 159 207 212 94 35 46 35 28 28 19 351 334 324 315 305 300 301 301 313 324 309 307 298 299 295 300 318 342 0 353 357 0 6 3 358 352 348 343 339 335 332 329 322 320 318 312 304 301 300 305 300 295 290 284 283
1 222 64 4 356 283 250 107 156 157 124 70 111 236 284 252 247 229 176 162 166 190 205 204 205 206 204 208 209 210 216 205 201 203 195 183 179 177 176 176 182 167 124 152 119 104 50 34 29 39 15 345 328 312 298 290 287 292 301 302 306 309 299 295 294 294 285 285 301 341 2 353 357 2 7 5 351 348 341 334 331 329 328 325 320 317 312 309 302 299 300 295 291 292 288 285 283
23 21 297 332 115 278 297 260 182 194 339 323 90 268 252 279 275 211 182 181 179 203 205 207 207 206 205 207 211 211 215 209 227 217 199 188 173 179 178 176 175 169 163 149 127 95 87 59 7 125 288 293 273 268 280 276 289 299 301 300 311 293 292 285 286 285 284 292 329 360 4 353 2 1 2 359 352 346 337 333 326 325 326 321 316 312 311 311 311 303 298 296 298 289 290 290 281
351 80 266 278 200 263 335 8 248 268 127 325 177 238 308 289 283 287 187 178 199 216 217 217 214 210 206 209 209 210 210 223 230 217 203 183 190 180 183 165 170 174 163 158 153 147 149 212 187 201 247 270 282 301 312 307 311 307 305 295 282 285 277 277 279 280 284 298 325 5 357 350 352 351 354 353 356 341 339 333 326 325 325 320 312 311 308 310 314 308 302 293 284 291 287 281 285
320 18 213 214 230 299 297 290 341 252 163 230 245 226 249 256 252 222 195 194 197 224 226 223 219 213 210 209 209 209 211 205 207 202 200 192 187 194 180 167 164 159 175 170 169 164 169 186 217 224 248 260 268 278 291 295 289 289 281 271 271 259 262 258 263 269 283 285 318 2 354 347 344 344 347 348 350 340 336 328 325 325 324 321 317 313 308 306 304 305 306 304 296 288 286 285 284
251 293 308 303 295 215 246 291 258 31 186 220 259 243 265 270 271 221 206 192 203 221 219 221 218 213 212 212 211 214 212 209 208 195 188 190 191 193 179 164 157 163 170 174 175 193 188 217 234 261 249 284 285 282 285 283 288 284 272 272 269 256 263 261 257 281 284 289 317 353 1 348 333 335 339 342 349 341 335 332 328 327 325 320 317 310 307 303 298 300 301 300 296 287 284 283 284
228 192 210 205 264 272 218 235 274 177 289 276 225 237 258 269 276 268 195 198 205 227 228 243 225 219 218 216 217 215 215 218 205 192 190 189 192 184 183 173 170 170 167 168 170 170 194 221 234 276 252 245 264 267 267 279 274 285 307 315 295 253 272 284 273 263 279 288 298 333 342 326 316 320 320 326 331 331 329 325 323 324 325 324 321 319 312 311 304 299 291 292 292 283 274 278 282
120 108 159 242 236 275 278 240 254 85 255 250 255 239 254 265 269 275 234 193 227 236 233 230 224 216 215 217 218 217 215 215 187 198 194 192 194 194 179 170 171 172 177 173 168 193 196 196 174 226 224 228 229 228 251 242 310 329 331 295 292 300 297 289 274 267 274 279 285 292 322 309 307 311 320 332 330 330 324 318 319 320 318 315 309 301 297 293 288 285 289 288 291 289 278 266 270
154 180 204 272 216 260 267 285 342 299 168 286 282 263 254 257 269 270 255 170 229 220 229 235 228 221 218 218 220 216 215 141 180 211 210 204 201 195 181 180 163 163 201 182 190 197 195 192 197 225 227 232 230 219 221 223 199 197 257 285 291 302 307 309 310 320 311 309 316 330 336 330 324 323 322 326 323 320 317 315 310 304 306 297 288 283 283 282 289 288 291 290 275 289 290 285 280
134 210 236 300 267 254 281 303 17 322 141 261 286 281 268 262 262 270 256 214 244 217 214 233 217 221 222 218 221 213 194 200 198 209 202 200 201 197 188 189 190 184 178 189 196 185 209 208 214 222 224 211 229 224 203 224 221 250 209 260 255 280 264 254 258 271 292 303 312 333 335 332 328 321 314 311 308 307 303 303 297 294 289 289 291 288 289 296 295 294 289 285 295 275 279 284 280
150 119 192 238 244 11 308 305 2 302 181 289 307 289 275 266 253 255 272 225 253 228 225 238 216 225 219 218 209 206 206 196 200 198 198 196 197 195 195 195 195 186 182 194 207 210 210 211 211 211 225 221 234 234 216 215 226 245 250 251 262 236 254 265 268 273 276 289 305 314 305 296 298 295 297 296 297 297 294 290 291 291 290 290 293 296 295 291 291 290 289 283 280 290 283 278 265
259 203 223 257 271 238 204 273 320 288 312 15 288 279 271 235 244 276 356 345 317 266 256 254 240 236 241 241 220 212 207 198 199 196 195 193 196 200 195 196 180 184 191 199 199 203 199 204 204 197 211 219 224 231 225 221 251 276 270 268 245 258 263 252 249 250 228 243 275 293 290 274 268 267 269 264 262 268 268 269 279 285 287 287 287 287 290 289 290 286 286 285 286 294 301 297 287
318 229 208 221 232 263 291 335 5 1 328 343 12 325 279 305 263 251 276 332 287 246 243 253 234 227 219 229 228 210 215 201 199 195 193 192 192 191 201 189 183 190 194 205 198 203 190 204 193 208 218 230 232 227 208 197 217 233 308 329 334 332 325 329 330 327 327 332 322 309 294 281 273 268 264 264 254 258 262 267 272 277 278 282 284 286 286 287 281 281 280 287 287 282 278 289 286
95 267 188 213 224 213 294 321 18 299 237 291 32 113 285 97 273 282 281 298 282 257 219 265 244 226 213 229 225 206 202 199 200 195 193 192 193 189 194 193 189 185 205 196 196 204 201 206 193 192 208 227 228 239 202 208 215 211 234 240 235 251 270 264 250 267 274 283 284 295 294 295 286 282 283 276 275 272 280 280 275 273 274 278 286 288 286 280 278 272 279 282 291 298 291 281 281
237 213 112 112 109 161 204 144 221 254 144 284 242 186 269 283 249 248 276 300 269 283 272 260 250 230 225 229 220 208 202 198 194 195 194 194 189 189 187 191 188 192 191 181 194 202 205 200 166 185 211 228 237 242 219 205 219 238 253 257 259 260 243 270 274 267 258 268 287 286 287 282 280 274 277 272 268 275 278 278 276 280 282 281 285 285 284 283 278 272 269 278 285 281 276 271 271
223 210 143 148 154 185 155 171 246 253 4 291 197 160 302 258 275 340 22 258 276 267 267 267 254 234 233 233 219 212 203 199 193 192 192 190 192 192 185 186 194 189 177 182 193 196 187 165 156 171 212 230 251 247 252 220 225 230 235 255 282 267 263 270 275 270 275 274 278 283 280 280 277 270 262 267 268 269 273 276 278 279 284 287 286 285 281 280 277 277 274 272 272 273 269 273 283
297 130 101 73 75 66 94 128 184 326 55 274 188 195 203 280 200 100 0 242 266 260 253 255 258 241 231 229 222 210 198 200 200 200 192 192 192 189 191 182 183 193 190 181 172 148 171 164 151 158 242 231 248 273 244 248 230 231 255 262 271 285 285 290 275 285 290 290 289 288 285 284 282 279 271 265 271 269 273 273 276 281 284 285 284 281 285 285 285 279 272 268 268 270 279 283 278
128 109 54 16 40 43 40 62 70 4 265 257 235 188 175 282 202 189 160 204 203 227 274 276 276 265 243 226 212 198 197 197 197 194 192 190 187 190 184 184 187 187 178 177 177 170 163 161 160 141 222 243 246 252 237 254 242 230 247 261 273 294 302 295 304 306 310 309 302 299 297 292 285 281 278 272 268 274 272 275 280 281 281 281 281 280 278 280 281 279 276 273 271 274 278 278 274
122 60 97 31 324 25 27 336 65 221 264 269 232 173 185 215 281 245 238 273 221 193 213 242 259 260 243 222 209 199 198 198 191 186 186 183 189 202 190 193 185 182 177 181 177 158 157 169 163 139 218 238 237 236 238 249 243 255 253 267 285 292 294 296 300 303 306 301 298 298 299 294 289 284 277 278 273 272 277 278 278 281 279 277 275 274 275 277 280 280 277 274 275 277 276 273 267
92 76 50 86 281 16 327 20 313 195 236 253 88 141 309 236 244 235 255 249 243 226 224 220 237 259 262 230 209 204 201 192 190 191 186 188 193 191 196 193 184 181 183 185 174 160 156 167 168 159 262 225 238 229 240 254 257 270 279 288 296 295 291 289 292 293 296 297 300 297 297 293 293 290 286 282 283 282 283 284 282 278 279 272 272 274 274 273 276 276 275 274 275 274 272 267 261
122 153 142 104 241 91 266 264 235 298 282 247 144 181 263 284 275 217 230 230 228 225 225 246 276 293 280 220 213 207 202 200 196 191 193 194 195 195 191 186 184 179 179 175 164 157 166 170 180 196 252 234 242 243 244 266 275 279 286 290 294 290 285 285 289 295 299 297 294 292 291 290 291 285 290 285 286 286 279 276 278 276 273 275 272 270 271 271 271 271 270 271 270 270 268 264 271
196 129 150 180 144 160 234 211 241 260 264 250 240 79 236 83 246 243 203 221 234 285 334 276 283 277 271 245 221 219 213 208 198 200 201 199 198 192 188 184 177 172 170 165 158 163 162 185 185 211 247 242 233 258 263 282 293 293 290 279 277 276 279 285 292 296 299 299 294 289 286 287 285 288 286 288 287 283 280 276 274 272 272 271 272 271 272 273 271 271 271 269 271 268 265 263 267
182 172 76 96 217 116 209 207 205 290 336 305 178 214 200 199 290 292 256 325 282 303 313 353 323 330 198 191 206 214 211 203 203 207 209 209 201 190 185 180 171 165 168 158 163 165 175 194 197 206 224 254 253 263 259 252 273 272 281 288 282 281 289 299 300 297 290 287 288 286 286 285 284 287 287 287 285 282 280 279 276 272 269 264 266 268 272 271 271 273 273 271 268 266 271 274 276
214 114 197 213 109 140 308 334 78 40 70 261 149 276 262 315 278 250 345 278 264 330 283 353 300 270 208 225 219 215 209 208 203 206 206 201 192 195 186 171 166 165 163 178 178 178 179 186 197 214 225 231 242 255 260 270 273 300 300 286 284 292 299 302 299 294 290 287 285 286 285 286 287 285 286 286 287 283 280 278 278 273 269 267 264 266 266 269 271 271 272 273 272 276 277 276 274
106 197 235 147 132 119 130 220 323 57 218 272 109 255 281 95 286 73 324 259 259 240 233 256 278 226 226 227 219 209 208 208 207 211 207 197 195 187 180 180 174 175 178 174 173 174 182 183 193 208 225 256 254 240 258 254 291 299 291 289 294 300 301 296 289 287 290 290 287 287 286 288 287 288 287 286 285 284 283 281 279 277 276 269 259 259 262 265 268 269 268 268 268 268 266 265 264
138 190 248 114 214 229 295 90 260 262 246 272 280 272 262 156 254 114 236 215 245 245 212 236 252 222 231 230 225 219 210 200 201 203 195 191 190 186 183 179 179 177 175 167 156 161 173 196 206 193 224 236 246 265 271 283 273 280 287 305 312 309 299 292 288 288 291 291 292 291 291 289 289 289 287 287 286 285 283 282 280 278 275 277 274 269 266 265 263 263 265 268 267 266 266 267 262
95 134 301 333 102 181 138 196 201 119 255 339 276 317 274 141 208 178 203 206 218 211 184 228 225 221 221 220 212 207 201 205 203 200 198 193 187 184 181 178 177 179 177 173 158 160 182 195 189 208 229 248 273 282 297 311 306 290 300 307 300 290 289 287 291 296 295 294 293 294 294 293 290 290 288 286 285 283 283 283 281 280 281 277 278 274 267 264 262 263 265 267 267 267 267 266 267
150 174 267 330 222 237 115 333 160 172 198 229 289 298 276 185 191 160 197 193 201 186 208 220 222 222 219 210 203 203 204 203 204 199 193 189 185 182 184 179 173 160 161 155 163 173 183 171 191 211 220 262 260 267 279 282 282 288 308 307 301 297 295 294 297 296 294 293 295 295 294 294 294 288 288 285 283 283 284 282 282 278 279 281 280 278 272 264 263 264 265 265 267 265 267 267 270
175 178 207 189 146 151 141 255 86 170 191 238 190 255 276 203 164 160 173 196 185 209 200 215 217 220 212 210 209 200 200 209 203 196 187 185 183 181 178 168 142 158 160 166 171 153 163 187 198 208 230 262 275 296 273 287 300 317 311 302 300 301 300 303 301 297 291 293 295 296 296 295 289 287 285 285 286 285 283 283 281 281 282 282 280 280 277 269 263 263 265 263 263 265 265 265 264